Location: Waldport
(44.4270°N, 124.0680°W)
Time: 08:34:25
(UTC-07:00)

Daily predictions for brighter satellites

Satellite Brightness Start Highest point End
(mag) Time Altitude Azimuth Time Altitude Azimuth Time Altitude Azimuth
ATLAS 3B R/B 3.4 21:32:25 10° NNW 21:38:45 42° NE 21:44:56 10° ESE
USA 238 DEB 4.2 21:33:40 10° NNW 21:40:41 57° NE 21:47:47 10° SE
USA 238 4.2 21:33:47 10° NNW 21:40:47 56° NE 21:47:53 10° SE
SPOT 5 4.4 21:37:18 10° ESE 21:41:30 26° ENE 21:45:49 10° N
Cosmos 1238 Rocket 2.6 21:38:58 10° SSE 21:41:45 40° E 21:44:40 10° NNE
Cosmos 1269 Rocket 4.2 21:36:58 10° S 21:42:07 54° ESE 21:47:18 10° NNE
Cosmos 1707 4.1 21:38:49 10° SSW 21:42:29 42° WNW 21:46:10 10° N
In-Cosmos 22 4.3 21:38:18 10° S 21:43:46 63° E 21:49:24 10° NNE
Meteor 1-16 Rocket 4.5 21:38:21 10° NNW 21:43:54 75° W 21:49:36 10° S
Lacrosse 5 1.8 21:40:35 10° SW 21:45:39 78° SE 21:50:43 10° NE
Cosmos 1674 3.7 21:43:52 10° SSE 21:47:11 29° E 21:50:33 10° NNE
Thor Agena Rocket 4.5 21:43:22 10° N 21:48:19 52° WNW 21:53:13 10° SW
SL-08 RB Rocket 4.0 21:46:23 10° SSE 21:50:56 57° ENE 21:55:32 10° N
MetOp-B 4.3 21:46:57 10° SSE 21:52:13 63° ENE 21:57:32 10° N
Cosmos 1726 3.1 21:56:44 10° N 22:00:09 32° ENE 22:03:12 12° SE
Cosmos 1315 Rocket 3.1 21:56:34 10° SSW 22:00:37 74° WNW 22:04:44 10° N
ERS-2 3.9 21:57:48 10° SSW 22:01:05 30° W 22:04:22 10° NW
Iridium 4 Rocket 4.0 22:02:10 10° S 22:07:45 68° W 22:12:55 10° N
ATLAS 2AS CENTAUR R/B 3.1 22:01:25 10° SSW 22:09:13 76° ESE 22:17:21 10° NE
ERS-1 Rocket 3.0 22:06:45 10° SSE 22:11:43 69° ENE 22:16:45 10° N
Cosmos 2285 Rocket 4.1 22:05:53 10° SSW 22:12:13 83° WNW 22:18:33 10° NNE
Cosmos 1437 3.1 22:09:10 10° NNW 22:12:18 60° W 22:15:25 10° S
Cosmos 2251 Rocket 4.3 22:12:00 10° SSE 22:16:42 33° E 22:21:25 10° NE
Cosmos-2242 3.2 22:12:53 10° NNW 22:17:17 75° W 22:21:40 10° S
Cosmos 2084 3.9 22:13:51 10° NW 22:17:33 45° WSW 22:20:45 13° SSE
Landsat 7 4.5 22:16:59 14° SE 22:20:43 42° ENE 22:25:12 10° N
Cosmos 2278 Rocket 3.1 22:16:23 11° SSE 22:21:04 30° ESE 22:25:56 10° NE
ARGOS 3.7 22:19:07 10° S 22:24:26 58° W 22:29:49 10° NNW
S3M 4.2 22:20:18 10° S 22:26:30 59° E 22:32:48 10° NNE
CZ-2C R/B 4.3 22:25:43 14° SE 22:30:04 35° ENE 22:35:13 10° N
SL-14 R/B 4.2 22:29:03 18° SE 22:31:11 31° E 22:34:42 10° NNE
Cosmos 1842 Rocket 3.7 22:28:28 10° N 22:32:47 58° E 22:35:50 19° SSE
Cosmos 1346 Rocket 3.8 22:29:03 10° NNW 22:32:53 45° W 22:36:44 10° SSW
KORONAS-FOTON 3.8 22:29:34 10° S 22:33:27 81° E 22:37:24 10° N
COSMOS 2406 3.3 22:29:11 10° NNW 22:34:59 86° WSW 22:39:30 17° SSE
Helios 1A 3.0 22:32:09 18° SSE 22:35:11 68° ENE 22:39:24 10° N
Helios 1B rocket 3.0 22:35:00 10° NNE 22:38:51 39° E 22:41:09 21° SSE
Cosmos 1844 Rocket 3.1 22:34:20 10° SW 22:39:57 67° WNW 22:45:36 10° NNE
Terra 2.5 22:37:00 18° SE 22:40:07 42° ENE 22:44:37 10° N
Cosmos 1844 3.9 22:37:46 10° SSW 22:43:28 80° WNW 22:49:17 10° NNE
NOSS 2-2 (E) 4.5 22:44:22 22° SE 22:45:06 23° ESE 22:48:30 10° ENE
CENTAUR R/B 3.9 22:39:09 10° NNW 22:46:31 44° NE 22:54:21 11° ESE
NOSS 3-4 (A) 3.8 22:40:53 10° S 22:46:39 43° ESE 22:52:38 10° NE
NOSS 3-4 (C) 3.8 22:41:00 10° S 22:46:43 43° ESE 22:52:42 10° NE
Cosmos 1553 Rocket 4.0 22:43:36 10° S 22:49:40 82° W 22:55:47 10° N
APEX 2.8 22:52:44 10° NNW 22:55:50 83° WSW 22:57:31 29° SSE
ATLAS 5 CENTAUR R/B 2.5 22:57:11 25° SSE 22:58:39 31° ESE 23:02:53 10° NE
BREEZE-M DEB (TANK) 3.1 22:51:54 10° WSW 22:59:07 70° NNW 23:01:51 10° ENE
Okean 3 Rocket 4.4 23:01:11 25° SE 23:02:45 33° E 23:06:41 10° NNE
Cosmos 807 4.1 23:01:42 29° S 23:03:04 84° W 23:06:21 10° N
Cosmos 1626 2.8 23:02:05 30° SE 23:03:10 37° E 23:06:38 10° NNE
OAO 3 Rocket 4.4 22:59:30 10° WSW 23:03:25 24° SSW 23:04:14 23° S
Cosmos 2221 2.5 23:02:29 10° N 23:06:50 71° E 23:08:55 29° SSE
Cosmos 2082 Rocket 3.0 23:01:57 10° NNW 23:07:23 42° ENE 23:10:56 20° ESE
Cosmos 1340 3.6 23:03:59 10° NNW 23:07:36 42° W 23:09:57 19° SSW
SL-27 R/B 4.2 23:05:13 10° N 23:08:14 24° ENE 23:09:33 19° E
Cosmos 2315 Rocket 4.3 23:04:20 22° SSE 23:08:14 52° E 23:14:23 10° NNE
SL-8 R/B 3.9 23:03:56 10° WSW 23:08:47 77° NNW 23:13:38 10° ENE
Cosmos 1386 Rocket 4.4 23:02:54 10° N 23:09:01 83° W 23:13:14 21° S
Cosmos 1833 Rocket 3.2 23:04:36 10° NNW 23:10:04 49° ENE 23:13:23 23° ESE
NOSS 2-2 (D) 3.8 23:14:50 35° SSE 23:15:36 39° ESE 23:19:35 10° NE
SPOT 1/Viking Rocket 4.2 23:12:30 18° S 23:16:09 50° W 23:21:10 10° NNW
H-2A R/B 3.9 23:12:19 10° SSW 23:16:36 25° W 23:21:00 10° NW
CZ-2C R/B 3.0 23:13:41 10° NNE 23:18:56 48° E 23:21:22 29° SSE
SPOT 5 3.8 23:15:36 17° SSW 23:19:15 45° W 23:24:20 10° NNW
RESURS DK-1 3.4 23:20:00 27° ESE 23:20:07 27° ESE 23:23:39 10° NE
EP 1 4.2 23:22:19 53° SW 23:22:49 80° NW 23:25:24 10° NE
Cosmos 1455 3.4 23:20:27 10° NNE 23:23:47 29° ENE 23:24:40 26° E
Cosmos 1300 3.2 23:21:11 10° NNW 23:24:55 52° W 23:26:36 28° SSW
Lacrosse 5 3.9 23:24:36 10° W 23:29:04 30° NNW 23:33:33 10° NE
ATLAS 3B R/B 3.2 23:23:13 10° NW 23:29:29 46° WSW 23:33:08 24° S
Cosmos 1461 3.2 23:25:28 10° SW 23:30:08 80° NW 23:34:56 10° NNE
Cosmos 1328 3.7 23:39:14 40° SSW 23:40:36 84° W 23:44:34 10° N
NOSS 2-2 (C) 3.2 23:40:12 37° SSW 23:41:36 72° SE 23:45:58 10° NE
